Regional Weather Roundup
Issued by NWS Sterling, VA

Home | Current Version | Previous Version | Graphics & Text | Print | Product List | Glossary On
Versions: 1 2 3 4 5 6 7 8 9 10 11 12 13 14 15 16 17 18 19 20 21 22 23 24 25 26 27
000
ASUS41 KLWX 170411
RWRLWX

REGIONAL WEATHER ROUNDUP
NATIONAL WEATHER SERVICE BALTIMORE MD/WASHINGTON DC
1100 PM EST SAT DEC 16 2017

Note: "FAIR" indicates few or no clouds below 12,000 feet
with no significant weather and/or obstructions to visibility.
 TC=TEMPERATURE CELSIUS

 * =Non NWS site. Station does not report precipitation (e.g. rain,
    snow, etc.), thunder, or fog.

DCZ001-MDZ009-015-VAZ040>042-051-053>054-170500-
WASHINGTON METRO

CITY           SKY/WX    TMP DP  RH WIND       PRES   REMARKS
WASHINGTON NAT CLEAR     37  28  70 SW3       30.21R
DULLES         CLEAR     32  24  72 S6        30.19R
ANDREWS AFB    CLEAR     31  22  71 CALM      30.19R
FT BELVOIR     CLEAR     28  23  83 CALM      30.20R
QUANTICO       CLEAR     31  28  89 NW3       30.22R
COLLEGE PARK*  CLEAR     28  25  91 CALM      30.20R
LEESBURG*      CLEAR     30  27  86 CALM      30.20R
MANASSAS*      CLEAR     25  22  88 CALM      30.20R
GAITHERSBURG*  CLEAR     30  23  75 CALM      30.19R

$$

MDZ006>007-011-014-170500-
BALTIMORE METRO

CITY           SKY/WX    TMP DP  RH WIND       PRES   REMARKS
BWI AIRPORT    CLEAR     30  24  78 CALM      30.19R
MD SCIENCE CTR   N/A     38  27  64 MISG      30.18R
MARTIN STATE   PTCLDY    30  28  93 CALM      30.21R
ANNAPOLIS      CLEAR     33  28  81 CALM      30.20R
FORT MEADE*    CLEAR     27  23  86 CALM      30.22R

$$

MDZ012-015-019>023-170500-
MARYLAND EASTERN SHORE

CITY           SKY/WX    TMP DP  RH WIND       PRES   REMARKS
OCEAN CITY     CLEAR     36  28  73 SW7       30.22S
SALISBURY      CLEAR     31  27  85 CALM      30.21S
BAY BRIDGE AP* CLEAR     37  27  65 SW3       30.20R
CAMBRIDGE*     CLEAR     30  27  86 CALM      30.21R
EASTON*        CLEAR     34  26  72 CALM      30.23R

$$

MDZ017>025-170500-
SOUTHERN MARYLAND

CITY           SKY/WX    TMP DP  RH WIND       PRES   REMARKS
PATUXENT RIVER CLEAR     40  25  55 SW10      30.20R
ST INIGOES     CLEAR     40  28  62 S9        30.21R
LEONARDTOWN*   CLEAR     37  27  65 SW6       30.22R

$$

MDZ003>005-170500-
NORTH CENTRAL MARYLAND

CITY           SKY/WX    TMP DP  RH WIND       PRES   REMARKS
FREDERICK*     CLEAR     27  27 100 CALM      30.21R
HAGERSTOWN APT CLEAR     34  24  67 CALM      30.16R
WESTMINSTER*   PTCLDY    34  25  69 SW3       30.15R

$$

MDZ501>502-170500-
WESTERN MARYLAND

CITY           SKY/WX    TMP DP  RH WIND       PRES   REMARKS
OAKLAND*       CLEAR     34  23  64 W14G26    30.06R WCI  24
CUMBERLAND*    CLEAR     30  28  93 N3        30.20R

$$

VAZ025>031-170500-
SHENANDOAH VALLEY

CITY           SKY/WX    TMP DP  RH WIND       PRES   REMARKS
WINCHESTER*    CLEAR     28  21  74 CALM      30.16R
FRONT ROYAL*   FAIR      30  23  74 CALM      30.16R
LURAY*         CLEAR     34  27  75 S3        30.17R
NEW MARKET*    CLEAR     26  21  83 CALM      30.17R
STAUNTON*      CLOUDY    31  22  68 CALM      30.19S
WAYNESBORO*    CLOUDY    33  23  65 SE3       30.17S

$$

WVZ021-048>050-054>055-170500-
EASTERN WEST VIRGINIA PANHANDLE

CITY           SKY/WX    TMP DP  RH WIND       PRES   REMARKS
MARTINSBURG    CLEAR     26  21  81 CALM      30.16R
PETERSBURG*    CLEAR     32  22  66 S3        30.15R

$$

VAZ036>039-050-170500-
CENTRAL FOOTHILLS

CITY           SKY/WX    TMP DP  RH WIND       PRES   REMARKS
CHARLOTTESVILL CLEAR     38  25  59 S7        30.17R
CULPEPER*      FAIR      26  21  80 CALM      30.20R
ORANGE*        CLEAR     30  23  74 CALM      30.19R
GORDONSVILLE*  CLEAR     31  25  78 SW3       30.18S
WARRENTON*     CLEAR     24  19  82 CALM      30.18R

$$

VAZ055>057-170500-
NORTH AND CENTRAL PIEDMONT

CITY           SKY/WX    TMP DP  RH WIND       PRES   REMARKS
FREDERICKSBRG* CLEAR     31  26  80 CALM      30.20R
STAFFORD*      CLEAR     37  26  63 SW3       30.24R

$$

NCZ024-NYZ072-PAZ021-071-VAZ022-071-170500-
OTHER REGIONAL OBSERVATIONS

CITY           SKY/WX    TMP DP  RH WIND       PRES   REMARKS
NEW YORK CITY  CLOUDY    35  22  58 VRB7      30.21R
PHILADELPHIA   CLOUDY    38  27  64 S7        30.20R
PITTSBURGH     PTCLDY    34  25  69 CALM      30.12R
ROANOKE        CLOUDY    41  24  51 W8        30.23R
RICHMOND       CLEAR     34  24  67 S5        30.22R
RALEIGH        PTCLDY    33  24  69 SW3       30.27R

$$

ANZ530>537-170500-
MARINE OBSERVATIONS

STATION/POSITION TIME  TEMP    WIND        PRES
                       AIR SEA DIR/SP/G
                 (UTC) (F)     (DEG/KT/KT) (MB)
THOMAS PT LIGHT  0400   39 44  280/  5/  6   N/A
BALT KEY BRIDGE  0348   39     250/  2/  3 1022.4R
COVE POINT       0348   42     260/ 13/ 15 1023.2R
LEWISETTA        0348   40 39  240/  8/  9 1023.0R
SOLOMONS ISLAND  0348   41 44  250/  5/  8 1022.6R
PINEY POINT      0348          240/  5/  8   N/A

$$





USA.gov is the U.S. government's official web portal to all federal, state and local government web resources and services.